Regional Weather Roundup
Issued by NWS

Home | Current Version | Previous Version | Text Only | Print | Product List | Glossary Off
Versions: 1 2 3 4 5 6 7 8 9 10 11 12 13 14 15 16 17 18 19 20 21 22 23 24 25 26 27 28 29 30 31 32 33 34 35 36 37 38 39 40 41 42 43 44 45 46 47 48 49 50

000
ASUS43 KDTX 060401
RWRMI
MICHIGAN HOURLY REGIONAL WEATHER ROUNDUP
NATIONAL WEATHER SERVICE DETROIT/PONTIAC MI
1100 PM EST FRI FEB 05 2016

NOTE: "FAIR" INDICATES FEW OR NO CLOUDS BELOW 12,000 FEET WITH NO
SIGNIFICANT WEATHER AND/OR OBSTRUCTION TO VISIBILITY.

MIZ047>049-052>055-059>063-066>070-074>076-081>083-060500-
SOUTHEAST LOWER MICHIGAN

CITY           SKY/WX    TMP DP  RH WIND       PRES   REMARKS
ADRIAN         CLOUDY    40  26  57 W6        30.28F
ALMA           CLOUDY    27  20  77 W6        30.28S WCI  20
ANN ARBOR      CLOUDY    31  26  82 W7        30.26F WCI  24
BAD AXE        CLOUDY    29  28  94 CALM      30.25F FOG
CARO           CLOUDY    29  28  94 SW3       30.24F FOG
DETROIT CITY   CLOUDY    33  26  75 W6        30.26F WCI  28
DETROIT        CLOUDY    33  26  75 SW7       30.27F WCI  27
FLINT          CLOUDY    32  26  78 W7        30.26F WCI  26
GROSSE ILE     CLOUDY    34  27  75 W5        30.26F WCI  30
HILLSDALE      CLOUDY    27  25  89 W6        30.27R WCI  21
HOWELL         CLOUDY    29  23  77 W7        30.25S WCI  22

CITY           SKY/WX    TMP DP  RH WIND       PRES   REMARKS
JACKSON        MOCLDY    27  21  78 NW9       30.27S WCI  18
LAMBERTVILLE   MOCLDY    31  24  77 SW3       30.29S
LANSING        CLOUDY    27  20  75 W7        30.28F WCI  19
LAPEER         CLOUDY    31  28  91 NW5       30.24F WCI  26
MASON          CLOUDY    27  21  77 W9        30.28S WCI  18
MONROE         CLOUDY    32  26  79 SW6       30.27F WCI  26
MT. CLEMENS    CLOUDY    33  27  79 W2        30.24F
PONTIAC        CLOUDY    30  26  85 W5        30.23F WCI  25
PORT HOPE        N/A     29  27  92 SW5       30.23F WCI  24
PORT HURON     CLOUDY    30  28  93 CALM      30.25F
TRI CITIES     MOCLDY    30  21  69 W7        30.27S WCI  23
MIDLAND        CLOUDY    29  20  68 W6        30.26S WCI  23
TROY           CLOUDY    33  29  87 SW3       30.27S
SAGINAW HB     CLOUDY    32  28  86 W8        30.26S WCI  25
$$
MIZ043>046-050>051-056>058-064>065-071>073-077>080-060500-
SOUTHWEST LOWER MICHIGAN

CITY           SKY/WX    TMP DP  RH WIND       PRES   REMARKS
BATTLE CREEK   CLOUDY    25  19  78 W5        30.29S WCI  19
BENTON HARBOR  CLEAR     28  22  78 S5        30.32F WCI  23
BIG RAPIDS     CLOUDY    24  18  77 CALM      30.26S
COLDWATER      PTCLDY    25  21  85 W3        30.30R
FREMONT        MOCLDY    23  18  80 CALM      30.28S
HOLLAND        CLOUDY    26  21  81 CALM      30.31S
GRAND RAPIDS   CLOUDY    27  18  69 W3        30.29S
IONIA          CLOUDY    26  19  74 W5        30.27S WCI  20
KALAMAZOO      CLOUDY    27  20  75 W5        30.30S WCI  22
LUDINGTON      CLOUDY    24  19  81 CALM      30.28F
MARSHALL       MOCLDY    25  20  80 W3        30.28S
MOUNT PLEASANT PTCLDY    27  17  66 W3        30.26S
MUSKEGON       CLOUDY    26  19  74 CALM      30.30F
SOUTH HAVEN    MOCLDY    28  23  82 SW3       30.32S
$$
MIZ016>042-060500-
NORTHERN LOWER MICHIGAN

CITY           SKY/WX    TMP DP  RH WIND       PRES   REMARKS
ALPENA         PTCLDY    15  12  88 CALM      30.23F
BEAVER ISLAND  CLOUDY    28  19  70 SW10      30.20F WCI  18
BELLAIRE       CLOUDY    22  17  84 CALM      30.25F
CADILLAC       CLOUDY    16  12  84 CALM      30.22F
CHARLEVOIX     CLOUDY    26  19  72 SW8       30.25F WCI  18
FRANKFORT      CLOUDY    26  18  71 CALM      30.25F
GAYLORD        CLOUDY    18  14  84 SW3       30.19F
GRAYLING       CLOUDY    16  13  89 W3        30.22F
HARBOR SPRINGS CLOUDY    26  18  72 SW14      30.21F WCI  15
HOUGHTON LAKE  CLOUDY    20  17  88 SW3       30.23F
MANISTEE       CLOUDY    21  16  79 CALM      30.27F
OSCODA         PTCLDY    25  22  89 W5        30.24F WCI  19
PELLSTON       CLOUDY    13  10  88 CALM      30.21F
ROGERS CITY    CLOUDY    20  13  75 SW3       30.24S
TRAVERSE CITY  CLOUDY    20  13  74 S3        30.24F
$$
MIZ007>008-015-060500-
EASTERN UPPER MICHIGAN

CITY           SKY/WX    TMP DP  RH WIND       PRES   REMARKS
KINROSS        CLOUDY    19  18  93 S3        30.18F
MACKINAC ISLAN CLOUDY    24  19  81 SW7       30.19F WCI  15
NEWBERRY       CLOUDY    19  15  86 S6        30.15F WCI  10
S. S. MARIE    MOCLDY    20  12  71 S3        30.17F
$$
MIZ004>006-011>014-085-060500-
CENTRAL UPPER MICHIGAN

CITY           SKY/WX    TMP DP  RH WIND       PRES   REMARKS
MANISTIQUE     CLOUDY    27  19  71 SW5       30.18F WCI  22
ESCANABA       CLOUDY    25  16  68 SW10G17   30.17F WCI  15
MENOMINEE      CLOUDY    21  16  79 SW9       30.21F WCI  11
SAWYER-GWINN   CLOUDY    23  12  64 SW13      30.09F WCI  11
$$
MIZ001>003-009>011-084-060500-
WESTERN UPPER MICHIGAN

CITY           SKY/WX    TMP DP  RH WIND       PRES   REMARKS
IRON MOUNTAIN  CLOUDY    24  10  55 SW9       30.12F WCI  14
HOUGHTON       FLURRIES  25  14  63 W20       30.04F WCI  11
COPPER HARBOR    N/A     27  14  58 VRB5      30.06F WCI  22
IRONWOOD       CLOUDY    23  16  74 SW14      30.08S WCI  11
$$

ABBREVIATIONS USED IN REMARKS
   TC - TEMPERATURE IN CELSIUS
  WCI - WIND CHILL INDEX
   HX - HEAT INDEX
  VSB - VISIBILITY




USA.gov is the U.S. government's official web portal to all federal, state and local government web resources and services.